STARLINK-2691

decayed
NORAD ID: 48647 Int'l Des: 2021-044 Owner: SPXS Country: US Constellation: starlink
LEOCIRCULAR

关于 STARLINK-2691

正在加载描述...

高度历史

Altitude vs Time

uPlot chart will show altitude changes over time

两行轨道根数

1 48647U 21044K 25028.31199946 .15554894 12505-4 63150-3 0 9995
2 48647 53.0365 122.4872 0005513 298.8728 167.7254 16.43543036203773
Epoch: Jan 28, 2025 • Age: 5538 hours

当前状态

Position data unavailable
发射日期 May 26, 2021
运行时间 4.3 years
衰减日期 Jan 28, 2025
类型 internet

技术详情

分类 Payload
质量 260.00 kg
干质量 248.00 kg
总质量 260.00 kg
长度 0.20 m
直径 2.80 m
跨度 9.00 m
形状 Box + pan
制造商 SPXS
平台类型 Starlink
阶段状态 Reentered
所有者/国家 SPXS/US

大型星座

Loading constellations...